QPF
0.00 0.00 0.00 0.00 0.00 0.00 0.00 0.00 0.00 0.00 0.00 0.00 0.00 0.00 0.00 0.00 0.00 0.00 0.00 0.00 0.00 0.00 0.00 0.00 0.00 0.00 0.00 0.00 0.00 0.00 0.00 0.00 0.00 0.00 0.00 0.00 0.00 0.00 0.00 0.00 0.00 0.00 0.00 0.00 0.00 0.00 0.00 0.00 0.00 0.00 0.00 0.00 0.00 0.00 0.00 0.00 0.00 0.00 0.00 0.00 0.00 0.00 0.00 0.00 0.00 0.00 0.00 0.00 0.00
0.00 0.00 0.00 0.00 0.00 0.00 0.00 0.00 0.00 0.00 0.00 0.00 0.00 0.00 0.00 0.00 0.00 0.00 0.00 0.00 0.00 0.00 0.00 0.00 0.00 0.00 0.00 0.00 0.00 0.00 0.00 0.00 0.00 0.00 0.00 0.00 0.00 0.00 0.00 0.00 0.00 0.00 0.00 0.00 0.00 0.00 0.00 0.00 0.00 0.00 0.00 0.00 0.00 0.00 0.00 0.00 0.00 0.00 0.00 0.00 0.00 0.00 0.00 0.00 0.00 0.00 0.00 0.00 0.00
0.00 0.00 0.00 0.00 0.00 0.00 0.00 0.00 0.00 0.00 0.00 0.00 0.00 0.00 0.00 0.00 0.00 0.00 0.00 0.00 0.00 0.00 0.00 0.00 0.00 0.00 0.00 0.00 0.00 0.00 0.00 0.00 0.00 0.00 0.00 0.00 0.00 0.00 0.00 0.00 0.00 0.00 0.00 0.00 0.00 0.00 0.00 0.00 0.00 0.00 0.00 0.00 0.00 0.00 0.00 0.00 0.00 0.00 0.00 0.00 0.00 0.00 0.00 0.00 0.00 0.00 0.00 0.00 0.00
0.00 0.00 0.00 0.00 0.00 0.00 0.00 0.00 0.00 0.00 0.00 0.00 0.00 0.00 0.00 0.00 0.00 0.00 0.00 0.00 0.00 0.00 0.00 0.00 0.00 0.00 0.00 0.00 0.00 0.00 0.00 0.00 0.00 0.00 0.00 0.00 0.00 0.00 0.00 0.00 0.00 0.00 0.00 0.00 0.00 0.00 0.00 0.00 0.00 0.00 0.00 0.00 0.00 0.00 0.00 0.00 0.00 0.00 0.00 0.00 0.00 0.00 0.00 0.00 0.00 0.00 0.00 0.00 0.00
0.00 0.00 0.00 0.00 0.00 0.00 0.00 0.00 0.00 0.00 0.00 0.00 0.00 0.00 0.00 0.00 0.00 0.00 0.00 0.00 0.00 0.00 0.00 0.00 0.00 0.00 0.00 0.00 0.00 0.00 0.00 0.00 0.00 0.00 0.00 0.00 0.00 0.00 0.00 0.00 0.00 0.00 0.00 0.00 0.00 0.00 0.00 0.00 0.00 0.00 0.00 0.00 0.00 0.00 0.00 0.00 0.00 0.00 0.00 0.00 0.00 0.00 0.00 0.00 0.00 0.00 0.00 0.00 0.00
0.00 0.00 0.00 0.00 0.00 0.00 0.00 0.00 0.00 0.00 0.00 0.00 0.00 0.00 0.00 0.00 0.00 0.00 0.00 0.00 0.00 0.00 0.00 0.00 0.00 0.00 0.00 0.00 0.00 0.00 0.00 0.00 0.00 0.00 0.00 0.00 0.00 0.00 0.00 0.00 0.00 0.00 0.00 0.00 0.00 0.00 0.00 0.00 0.00 0.00 0.00 0.00 0.00 0.00 0.00 0.00 0.00 0.00 0.00 0.00 0.00 0.00 0.00 0.00 0.00 0.00 0.00 0.00 0.00
0.00 0.00 0.00 0.00 0.00 0.00 0.00 0.00 0.00 0.00 0.00 0.00 0.00 0.00 0.00 0.00 0.00 0.00 0.00 0.00 0.00 0.00 0.00 0.00 0.00 0.00 0.00 0.00 0.00 0.00 0.00 0.00 0.00 0.00 0.00 0.00 0.00 0.00 0.00 0.00 0.00 0.00 0.00 0.00 0.00 0.00 0.00 0.00 0.00 0.00 0.00 0.00 0.00 0.00 0.00 0.00 0.00 0.00 0.00 0.00 0.00 0.00 0.00 0.00 0.00 0.00 0.00 0.00 0.00
0.00 0.00 0.00 0.00 0.00 0.00 0.00 0.00 0.00 0.00 0.00 0.00 0.00 0.00 0.00 0.00 0.00 0.00 0.00 0.00 0.00 0.00 0.00 0.00 0.00 0.00 0.00 0.00 0.00 0.00 0.00 0.00 0.00 0.00 0.00 0.00 0.00 0.00 0.00 0.00 0.00 0.00 0.00 0.00 0.00 0.00 0.00 0.00 0.00 0.00 0.00 0.00 0.00 0.00 0.00 0.00 0.00 0.00 0.00 0.00 0.00 0.00 0.00 0.00 0.00 0.00 0.00 0.00 0.00
0.00 0.00 0.00 0.00 0.00 0.00 0.00 0.00 0.00 0.00 0.00 0.00 0.00 0.00 0.00 0.00 0.00 0.00 0.00 0.00 0.00 0.00 0.00 0.00 0.00 0.00 0.00 0.00 0.00 0.00 0.00 0.00 0.00 0.00 0.00 0.00 0.00 0.00 0.00 0.00 0.00 0.00 0.00 0.00 0.00 0.00 0.00 0.00 0.00 0.00 0.00 0.00 0.00 0.00 0.00 0.00 0.00 0.00 0.00 0.00 0.00 0.00 0.00 0.00 0.00 0.00 0.00 0.00 0.00
0.00 0.00 0.00 0.00 0.00 0.00 0.00 0.00 0.00 0.00 0.00 0.00 0.00 0.00 0.00 0.00 0.00 0.00 0.00 0.00 0.00 0.00 0.00 0.00 0.00 0.00 0.00 0.00 0.00 0.00 0.00 0.00 0.00 0.00 0.00 0.00 0.00 0.00 0.00 0.00 0.00 0.00 0.00 0.00 0.00 0.00 0.00 0.00 0.00 0.00 0.00 0.00 0.00 0.00 0.00 0.00 0.00 0.00 0.00 0.00 0.00 0.00 0.00 0.00 0.00 0.00 0.00 0.00 0.00
0.00 0.00 0.00 0.00 0.00 0.00 0.00 0.00 0.00 0.00 0.00 0.00 0.00 0.00 0.00 0.00 0.00 0.00 0.00 0.00 0.00 0.00 0.00 0.00 0.00 0.00 0.00 0.00 0.00 0.00 0.00 0.00 0.00 0.00 0.00 0.00 0.00 0.00 0.00 0.00 0.00 0.00 0.00 0.00 0.00 0.00 0.00 0.00 0.00 0.00 0.00 0.00 0.00 0.00 0.00 0.00 0.00 0.00 0.00 0.00 0.00 0.00 0.00 0.00 0.00 0.00 0.00 0.00 0.00
0.00 0.00 0.00 0.00 0.00 0.00 0.00 0.00 0.00 0.00 0.00 0.00 0.00 0.00 0.00 0.00 0.00 0.00 0.00 0.00 0.00 0.00 0.00 0.00 0.00 0.00 0.00 0.00 0.00 0.00 0.00 0.00 0.00 0.00 0.00 0.00 0.00 0.00 0.00 0.00 0.00 0.00 0.00 0.00 0.00 0.00 0.00 0.00 0.00 0.00 0.00 0.00 0.00 0.00 0.00 0.00 0.00 0.00 0.00 0.00 0.00 0.00 0.00 0.00 0.00 0.00 0.00 0.00 0.00
0.00 0.00 0.00 0.00 0.00 0.00 0.00 0.00 0.00 0.00 0.00 0.00 0.00 0.00 0.00 0.00 0.00 0.00 0.00 0.00 0.00 0.00 0.00 0.00 0.00 0.00 0.00 0.00 0.00 0.00 0.00 0.00 0.00 0.00 0.00 0.00 0.00 0.00 0.00 0.00 0.00 0.00 0.00 0.00 0.00 0.00 0.00 0.00 0.00 0.00 0.00 0.00 0.00 0.00 0.00 0.00 0.00 0.00 0.00 0.00 0.00 0.00 0.00 0.00 0.00 0.00 0.00 0.00 0.00
0.00 0.00 0.00 0.00 0.00 0.00 0.00 0.00 0.00 0.00 0.00 0.00 0.00 0.00 0.00 0.00 0.00 0.00 0.00 0.00 0.00 0.00 0.00 0.00 0.00 0.00 0.00 0.00 0.00 0.00 0.00 0.00 0.00 0.00 0.00 0.00 0.00 0.00 0.00 0.00 0.00 0.00 0.00 0.00 0.00 0.00 0.00 0.00 0.00 0.00 0.00 0.00 0.00 0.00 0.00 0.00 0.00 0.00 0.00 0.00 0.00 0.00 0.00 0.00 0.00 0.00 0.00 0.00 0.00
0.00 0.00 0.00 0.00 0.00 0.00 0.00 0.00 0.00 0.00 0.00 0.00 0.00 0.00 0.00 0.00 0.00 0.00 0.00 0.00 0.00 0.00 0.00 0.00 0.00 0.00 0.00 0.00 0.00 0.00 0.00 0.00 0.00 0.00 0.00 0.00 0.00 0.00 0.00 0.00 0.00 0.00 0.00 0.00 0.00 0.00 0.00 0.00 0.00 0.00 0.00 0.00 0.00 0.00 0.00 0.00 0.00 0.00 0.00 0.00 0.00 0.00 0.00 0.00 0.00 0.00 0.00 0.00 0.00
0.00 0.00 0.00 0.00 0.00 0.00 0.00 0.00 0.00 0.00 0.00 0.00 0.00 0.00 0.00 0.00 0.00 0.00 0.00 0.00 0.00 0.00 0.00 0.00 0.00 0.00 0.00 0.00 0.00 0.00 0.00 0.00 0.00 0.00 0.00 0.00 0.00 0.00 0.00 0.00 0.00 0.00 0.00 0.00 0.00 0.00 0.00 0.00 0.00 0.00 0.00 0.00 0.00 0.00 0.00 0.00 0.00 0.00 0.00 0.00 0.00 0.00 0.00 0.00 0.00 0.00 0.00 0.00 0.00
0.00 0.00 0.00 0.00 0.00 0.00 0.00 0.00 0.00 0.00 0.00 0.00 0.00 0.00 0.00 0.00 0.00 0.00 0.00 0.00 0.00 0.00 0.00 0.00 0.00 0.00 0.00 0.00 0.00 0.00 0.00 0.00 0.00 0.00 0.00 0.00 0.00 0.00 0.00 0.00 0.00 0.00 0.00 0.00 0.00 0.00 0.00 0.00 0.00 0.00 0.00 0.00 0.00 0.00 0.00 0.00 0.00 0.00 0.00 0.00 0.00 0.00 0.00 0.00 0.00 0.00 0.00 0.00 0.00
0.00 0.00 0.00 0.00 0.00 0.00 0.00 0.00 0.00 0.00 0.00 0.00 0.00 0.00 0.00 0.00 0.00 0.00 0.00 0.00 0.00 0.00 0.00 0.00 0.00 0.00 0.00 0.00 0.00 0.00 0.00 0.00 0.00 0.00 0.00 0.00 0.00 0.00 0.00 0.00 0.00 0.00 0.00 0.00 0.00 0.00 0.00 0.00 0.00 0.00 0.00 0.00 0.00 0.00 0.00 0.00 0.00 0.00 0.00 0.00 0.00 0.00 0.00 0.00 0.00 0.00 0.00 0.00 0.00
0.00 0.00 0.00 0.00 0.00 0.00 0.00 0.00 0.00 0.00 0.00 0.00 0.00 0.00 0.00 0.00 0.00 0.00 0.00 0.00 0.00 0.00 0.00 0.00 0.00 0.00 0.00 0.00 0.00 0.00 0.00 0.00 0.00 0.00 0.00 0.00 0.00 0.00 0.00 0.00 0.00 0.00 0.00 0.00 0.00 0.00 0.00 0.00 0.00 0.00 0.00 0.00 0.00 0.00 0.00 0.00 0.00 0.00 0.00 0.00 0.00 0.00 0.00 0.00 0.00 0.00 0.00 0.00 0.00
0.00 0.00 0.00 0.00 0.00 0.00 0.00 0.00 0.00 0.00 0.00 0.00 0.00 0.00 0.00 0.00 0.00 0.00 0.00 0.00 0.00 0.00 0.00 0.00 0.00 0.00 0.00 0.00 0.00 0.00 0.00 0.00 0.00 0.00 0.00 0.00 0.00 0.00 0.00 0.00 0.00 0.00 0.00 0.00 0.00 0.00 0.00 0.00 0.00 0.00 0.00 0.00 0.00 0.00 0.00 0.00 0.00 0.00 0.00 0.00 0.00 0.00 0.00 0.00 0.00 0.00 0.00 0.00 0.00
0.00 0.00 0.00 0.00 0.00 0.00 0.00 0.00 0.00 0.00 0.00 0.00 0.00 0.00 0.00 0.00 0.00 0.00 0.00 0.00 0.00 0.00 0.00 0.00 0.00 0.00 0.00 0.00 0.00 0.00 0.00 0.00 0.00 0.00 0.00 0.00 0.00 0.00 0.00 0.00 0.00 0.00 0.00 0.00 0.00 0.00 0.00 0.00 0.00 0.00 0.00 0.00 0.00 0.00 0.00 0.00 0.00 0.00 0.00 0.00 0.00 0.00 0.00 0.00 0.00 0.00 0.00 0.00 0.00
0.00 0.00 0.00 0.00 0.00 0.00 0.00 0.00 0.00 0.00 0.00 0.00 0.00 0.00 0.00 0.00 0.00 0.00 0.00 0.00 0.00 0.00 0.00 0.00 0.00 0.00 0.00 0.00 0.00 0.00 0.00 0.00 0.00 0.00 0.00 0.00 0.00 0.00 0.00 0.00 0.00 0.00 0.00 0.00 0.00 0.00 0.00 0.00 0.00 0.00 0.00 0.00 0.00 0.00 0.00 0.00 0.00 0.00 0.00 0.00 0.00 0.00 0.00 0.00 0.00 0.00 0.00 0.00 0.00
0.00 0.00 0.00 0.00 0.00 0.00 0.00 0.00 0.00 0.00 0.00 0.00 0.00 0.00 0.00 0.00 0.00 0.00 0.00 0.00 0.00 0.00 0.00 0.00 0.00 0.00 0.00 0.00 0.00 0.00 0.00 0.00 0.00 0.00 0.00 0.00 0.00 0.00 0.00 0.00 0.00 0.00 0.00 0.00 0.00 0.00 0.00 0.00 0.00 0.00 0.00 0.00 0.00 0.00 0.00 0.00 0.00 0.00 0.00 0.00 0.00 0.00 0.00 0.00 0.00 0.00 0.00 0.00 0.00
0.00 0.00 0.00 0.00 0.00 0.00 0.00 0.00 0.00 0.00 0.00 0.00 0.00 0.00 0.00 0.00 0.00 0.00 0.00 0.00 0.00 0.00 0.00 0.00 0.00 0.00 0.00 0.00 0.00 0.00 0.00 0.00 0.00 0.00 0.00 0.00 0.00 0.00 0.00 0.00 0.00 0.00 0.00 0.00 0.00 0.00 0.00 0.00 0.00 0.00 0.00 0.00 0.00 0.00 0.00 0.00 0.00 0.00 0.00 0.00 0.00 0.00 0.00 0.00 0.00 0.00 0.00 0.00 0.00
0.00 0.00 0.00 0.00 0.00 0.00 0.00 0.00 0.00 0.00 0.00 0.00 0.00 0.00 0.00 0.00 0.00 0.00 0.00 0.00 0.00 0.00 0.00 0.00 0.00 0.00 0.00 0.00 0.00 0.00 0.00 0.00 0.00 0.00 0.00 0.00 0.00 0.00 0.00 0.00 0.00 0.00 0.00 0.00 0.00 0.00 0.00 0.00 0.00 0.00 0.00 0.00 0.00 0.00 0.00 0.00 0.00 0.00 0.00 0.00 0.00 0.00 0.00 0.00 0.00 0.00 0.00 0.00 0.00
0.00 0.00 0.00 0.00 0.00 0.00 0.00 0.00 0.00 0.00 0.00 0.00 0.00 0.00 0.00 0.00 0.00 0.00 0.00 0.00 0.00 0.00 0.00 0.00 0.00 0.00 0.00 0.00 0.00 0.00 0.00 0.00 0.00 0.00 0.00 0.00 0.00 0.00 0.00 0.00 0.00 0.00 0.00 0.00 0.00 0.00 0.00 0.00 0.00 0.00 0.00 0.00 0.00 0.00 0.00 0.00 0.00 0.00 0.00 0.00 0.00 0.00 0.00 0.00 0.00 0.00 0.00 0.00 0.00
0.00 0.00 0.00 0.00 0.00 0.00 0.00 0.00 0.00 0.00 0.00 0.00 0.00 0.00 0.00 0.00 0.00 0.00 0.00 0.00 0.00 0.00 0.00 0.00 0.00 0.00 0.00 0.00 0.00 0.00 0.00 0.00 0.00 0.00 0.00 0.00 0.00 0.00 0.00 0.00 0.00 0.00 0.00 0.00 0.00 0.00 0.00 0.00 0.00 0.00 0.00 0.00 0.00 0.00 0.00 0.00 0.00 0.00 0.00 0.00 0.00 0.00 0.00 0.00 0.00 0.00 0.00 0.00 0.00
0.00 0.00 0.00 0.00 0.00 0.00 0.00 0.00 0.00 0.00 0.00 0.00 0.00 0.00 0.00 0.00 0.00 0.00 0.00 0.00 0.00 0.00 0.00 0.00 0.00 0.00 0.00 0.00 0.00 0.00 0.00 0.00 0.00 0.00 0.00 0.00 0.00 0.00 0.00 0.00 0.00 0.00 0.00 0.00 0.00 0.00 0.00 0.00 0.00 0.00 0.00 0.00 0.00 0.00 0.00 0.00 0.00 0.00 0.00 0.00 0.00 0.00 0.00 0.00 0.00 0.00 0.00 0.00 0.00
0.00 0.00 0.00 0.00 0.00 0.00 0.00 0.00 0.00 0.00 0.00 0.00 0.00 0.00 0.00 0.00 0.00 0.00 0.00 0.00 0.00 0.00 0.00 0.00 0.00 0.00 0.00 0.00 0.00 0.00 0.00 0.00 0.00 0.00 0.00 0.00 0.00 0.00 0.00 0.00 0.00 0.00 0.00 0.00 0.00 0.00 0.00 0.00 0.00 0.00 0.00 0.00 0.00 0.00 0.00 0.00 0.00 0.00 0.00 0.00 0.00 0.00 0.00 0.00 0.00 0.00 0.00 0.00 0.00
0.00 0.00 0.00 0.00 0.00 0.00 0.00 0.00 0.00 0.00 0.00 0.00 0.00 0.00 0.00 0.00 0.00 0.00 0.00 0.00 0.00 0.00 0.00 0.00 0.00 0.00 0.00 0.00 0.00 0.00 0.00 0.00 0.00 0.00 0.00 0.00 0.00 0.00 0.00 0.00 0.00 0.00 0.00 0.00 0.00 0.00 0.00 0.00 0.00 0.00 0.00 0.00 0.00 0.00 0.00 0.00 0.00 0.00 0.00 0.00 0.00 0.00 0.00 0.00 0.00 0.00 0.00 0.00 0.00
0.00 0.00 0.00 0.00 0.00 0.00 0.00 0.00 0.00 0.00 0.00 0.00 0.00 0.00 0.00 0.00 0.00 0.00 0.00 0.00 0.00 0.00 0.00 0.00 0.00 0.00 0.00 0.00 0.00 0.00 0.00 0.00 0.00 0.00 0.00 0.00 0.00 0.00 0.00 0.00 0.00 0.00 0.00 0.00 0.00 0.00 0.00 0.00 0.00 0.00 0.00 0.00 0.00 0.00 0.00 0.00 0.00 0.00 0.00 0.00 0.00 0.00 0.00 0.00 0.00 0.00 0.00 0.00 0.00
0.00 0.00 0.00 0.00 0.00 0.00 0.00 0.00 0.00 0.00 0.00 0.00 0.00 0.00 0.00 0.00 0.00 0.00 0.00 0.00 0.00 0.00 0.00 0.00 0.00 0.00 0.00 0.00 0.00 0.00 0.00 0.00 0.00 0.00 0.00 0.00 0.00 0.00 0.00 0.00 0.00 0.00 0.00 0.00 0.00 0.00 0.00 0.00 0.00 0.00 0.00 0.00 0.00 0.00 0.00 0.00 0.00 0.00 0.00 0.00 0.00 0.00 0.00 0.00 0.00 0.00 0.00 0.00 0.00
0.00 0.00 0.00 0.00 0.00 0.00 0.00 0.00 0.00 0.00 0.00 0.00 0.00 0.00 0.00 0.00 0.00 0.00 0.00 0.00 0.00 0.00 0.00 0.00 0.00 0.00 0.00 0.00 0.00 0.00 0.00 0.00 0.00 0.00 0.00 0.00 0.00 0.00 0.00 0.00 0.00 0.00 0.00 0.00 0.00 0.00 0.00 0.00 0.00 0.00 0.00 0.00 0.00 0.00 0.00 0.00 0.00 0.00 0.00 0.00 0.00 0.00 0.00 0.00 0.00 0.00 0.00 0.00 0.00
0.00 0.00 0.00 0.00 0.00 0.00 0.00 0.00 0.00 0.00 0.00 0.00 0.00 0.00 0.00 0.00 0.00 0.00 0.00 0.00 0.00 0.00 0.00 0.00 0.00 0.00 0.00 0.00 0.00 0.00 0.00 0.00 0.00 0.00 0.00 0.00 0.00 0.00 0.00 0.00 0.00 0.00 0.00 0.00 0.00 0.00 0.00 0.00 0.00 0.00 0.00 0.00 0.00 0.00 0.00 0.00 0.00 0.00 0.00 0.00 0.00 0.00 0.00 0.00 0.00 0.00 0.00 0.00 0.00
0.00 0.00 0.00 0.00 0.00 0.00 0.00 0.00 0.00 0.00 0.00 0.00 0.00 0.00 0.00 0.00 0.00 0.00 0.00 0.00 0.00 0.00 0.00 0.00 0.00 0.00 0.00 0.00 0.00 0.00 0.00 0.00 0.00 0.00 0.00 0.00 0.00 0.00 0.00 0.00 0.00 0.00 0.00 0.00 0.00 0.00 0.00 0.00 0.00 0.00 0.00 0.00 0.00 0.00 0.00 0.00 0.00 0.00 0.00 0.00 0.00 0.00 0.00 0.00 0.00 0.00 0.00 0.00 0.00
0.00 0.00 0.00 0.00 0.00 0.00 0.00 0.00 0.00 0.00 0.00 0.00 0.00 0.00 0.00 0.00 0.00 0.00 0.00 0.00 0.00 0.00 0.00 0.00 0.00 0.00 0.00 0.00 0.00 0.00 0.00 0.00 0.00 0.00 0.00 0.00 0.00 0.00 0.00 0.00 0.00 0.00 0.00 0.00 0.00 0.00 0.00 0.00 0.00 0.00 0.00 0.00 0.00 0.00 0.00 0.00 0.00 0.00 0.00 0.00 0.00 0.00 0.00 0.00 0.00 0.00 0.00 0.00 0.00
0.00 0.00 0.00 0.00 0.00 0.00 0.00 0.00 0.00 0.00 0.00 0.00 0.00 0.00 0.00 0.00 0.00 0.00 0.00 0.00 0.00 0.00 0.00 0.00 0.00 0.00 0.00 0.00 0.00 0.00 0.00 0.00 0.00 0.00 0.00 0.00 0.00 0.00 0.00 0.00 0.00 0.00 0.00 0.00 0.00 0.00 0.00 0.00 0.00 0.00 0.00 0.00 0.00 0.00 0.00 0.00 0.00 0.00 0.00 0.00 0.00 0.00 0.00 0.00 0.00 0.00 0.00 0.00 0.00
0.00 0.00 0.00 0.00 0.00 0.00 0.00 0.00 0.00 0.00 0.00 0.00 0.00 0.00 0.00 0.00 0.00 0.00 0.00 0.00 0.00 0.00 0.00 0.00 0.00 0.00 0.00 0.00 0.00 0.00 0.00 0.00 0.00 0.00 0.00 0.00 0.00 0.00 0.00 0.00 0.00 0.00 0.00 0.00 0.00 0.00 0.00 0.00 0.00 0.00 0.00 0.00 0.00 0.00 0.00 0.00 0.00 0.00 0.00 0.00 0.00 0.00 0.00 0.00 0.00 0.00 0.00 0.00 0.00
0.00 0.00 0.00 0.00 0.00 0.00 0.00 0.00 0.00 0.00 0.00 0.00 0.00 0.00 0.00 0.00 0.00 0.00 0.00 0.00 0.00 0.00 0.00 0.00 0.00 0.00 0.00 0.00 0.00 0.00 0.00 0.00 0.00 0.00 0.00 0.00 0.00 0.00 0.00 0.00 0.00 0.00 0.00 0.00 0.00 0.00 0.00 0.00 0.00 0.00 0.00 0.00 0.00 0.00 0.00 0.00 0.00 0.00 0.00 0.00 0.00 0.00 0.00 0.00 0.00 0.00 0.00 0.00 0.00
0.00 0.00 0.00 0.00 0.00 0.00 0.00 0.00 0.00 0.00 0.00 0.00 0.00 0.00 0.00 0.00 0.00 0.00 0.00 0.00 0.00 0.00 0.00 0.00 0.00 0.00 0.00 0.00 0.00 0.00 0.00 0.00 0.00 0.00 0.00 0.00 0.00 0.00 0.00 0.00 0.00 0.00 0.00 0.00 0.00 0.00 0.00 0.00 0.00 0.00 0.00 0.00 0.00 0.00 0.00 0.00 0.00 0.00 0.00 0.00 0.00 0.00 0.00 0.00 0.00 0.00 0.00 0.00 0.00
0.00 0.00 0.00 0.00 0.00 0.00 0.00 0.00 0.00 0.00 0.00 0.00 0.00 0.00 0.00 0.00 0.00 0.00 0.00 0.00 0.00 0.00 0.00 0.00 0.00 0.00 0.00 0.00 0.00 0.00 0.00 0.00 0.00 0.00 0.00 0.00 0.00 0.00 0.00 0.00 0.00 0.00 0.00 0.00 0.00 0.00 0.00 0.00 0.00 0.00 0.00 0.00 0.00 0.00 0.00 0.00 0.00 0.00 0.00 0.00 0.00 0.00 0.00 0.00 0.00 0.00 0.00 0.00 0.00
MSLP
1023.00 1023.12 1023.28 1023.40 1023.52 1023.64 1023.72 1023.84 1023.96 1024.04 1024.12 1024.28 1024.48 1024.60 1024.72 1024.84 1025.00 1025.12 1025.12 1025.16 1025.28 1025.28 1025.28 1025.28 1025.28 1025.28 1025.32 1025.36 1025.40 1025.40 1025.40 1025.44 1025.48 1025.52 1025.56 1025.60 1025.60 1025.64 1025.68 1025.68 1025.72 1025.76 1025.80 1025.84 1025.84 1025.84 1025.84 1025.84 1025.84 1025.84 1025.88 1025.88 1025.96 1026.00 1025.96 1025.88 1025.92 1025.96 1026.00 1026.04 1026.08 1026.12 1026.20 1026.28 1026.36 1026.40 1026.40 1026.36 1026.36
1023.04 1023.16 1023.28 1023.40 1023.52 1023.64 1023.72 1023.84 1023.96 1024.08 1024.16 1024.28 1024.40 1024.52 1024.64 1024.80 1025.00 1025.08 1025.16 1025.24 1025.28 1025.28 1025.28 1025.28 1025.32 1025.36 1025.40 1025.40 1025.32 1025.32 1025.40 1025.40 1025.48 1025.52 1025.52 1025.56 1025.56 1025.56 1025.56 1025.64 1025.68 1025.72 1025.80 1025.84 1025.84 1025.84 1025.84 1025.84 1025.84 1025.88 1025.88 1025.88 1025.92 1025.96 1025.92 1025.84 1025.88 1026.00 1026.04 1026.12 1026.12 1026.12 1026.24 1026.36 1026.40 1026.40 1026.40 1026.40 1026.36
1023.08 1023.16 1023.28 1023.40 1023.56 1023.68 1023.88 1024.00 1024.12 1024.24 1024.28 1024.36 1024.36 1024.44 1024.56 1024.72 1024.88 1025.00 1025.12 1025.24 1025.28 1025.28 1025.36 1025.40 1025.40 1025.40 1025.40 1025.40 1025.36 1025.32 1025.32 1025.40 1025.40 1025.44 1025.48 1025.56 1025.56 1025.56 1025.60 1025.64 1025.68 1025.72 1025.76 1025.80 1025.80 1025.80 1025.80 1025.84 1025.84 1025.84 1025.84 1025.84 1025.88 1025.96 1025.92 1025.88 1025.92 1026.00 1026.08 1026.12 1026.12 1026.16 1026.24 1026.32 1026.40 1026.40 1026.40 1026.40 1026.40
1023.12 1023.24 1023.40 1023.56 1023.68 1023.84 1024.00 1024.08 1024.20 1024.28 1024.32 1024.36 1024.40 1024.48 1024.56 1024.68 1024.80 1024.96 1025.08 1025.20 1025.24 1025.28 1025.40 1025.40 1025.40 1025.40 1025.40 1025.40 1025.40 1025.36 1025.36 1025.36 1025.36 1025.40 1025.48 1025.52 1025.56 1025.56 1025.60 1025.64 1025.68 1025.72 1025.72 1025.68 1025.72 1025.72 1025.72 1025.76 1025.76 1025.76 1025.80 1025.84 1025.88 1025.96 1025.96 1025.92 1025.92 1026.00 1026.04 1026.12 1026.12 1026.16 1026.24 1026.28 1026.32 1026.32 1026.32 1026.32 1026.32
1023.32 1023.40 1023.56 1023.68 1023.80 1023.88 1024.00 1024.08 1024.20 1024.28 1024.32 1024.36 1024.40 1024.52 1024.60 1024.72 1024.80 1024.96 1025.08 1025.20 1025.28 1025.32 1025.36 1025.36 1025.40 1025.40 1025.40 1025.36 1025.40 1025.40 1025.40 1025.36 1025.40 1025.40 1025.40 1025.48 1025.52 1025.52 1025.56 1025.56 1025.64 1025.64 1025.64 1025.64 1025.68 1025.68 1025.68 1025.68 1025.68 1025.68 1025.72 1025.80 1025.84 1025.84 1025.84 1025.92 1025.92 1025.96 1026.00 1026.00 1026.08 1026.12 1026.20 1026.24 1026.24 1026.24 1026.24 1026.28 1026.28
1023.56 1023.64 1023.68 1023.72 1023.80 1023.88 1024.00 1024.04 1024.12 1024.24 1024.28 1024.36 1024.48 1024.60 1024.72 1024.76 1024.84 1024.96 1025.08 1025.20 1025.28 1025.28 1025.28 1025.36 1025.36 1025.36 1025.40 1025.36 1025.40 1025.40 1025.40 1025.40 1025.40 1025.40 1025.40 1025.40 1025.44 1025.48 1025.52 1025.56 1025.56 1025.56 1025.56 1025.56 1025.56 1025.56 1025.56 1025.64 1025.64 1025.64 1025.68 1025.68 1025.72 1025.80 1025.84 1025.84 1025.88 1025.96 1026.00 1026.04 1026.04 1026.08 1026.12 1026.12 1026.16 1026.16 1026.20 1026.28 1026.28
1023.56 1023.68 1023.72 1023.76 1023.76 1023.84 1023.96 1024.00 1024.12 1024.20 1024.28 1024.40 1024.56 1024.72 1024.76 1024.80 1024.84 1025.00 1025.08 1025.12 1025.16 1025.24 1025.28 1025.32 1025.32 1025.32 1025.36 1025.40 1025.40 1025.40 1025.40 1025.40 1025.40 1025.36 1025.36 1025.40 1025.44 1025.44 1025.48 1025.56 1025.56 1025.56 1025.56 1025.52 1025.52 1025.52 1025.52 1025.56 1025.56 1025.60 1025.64 1025.68 1025.68 1025.76 1025.80 1025.80 1025.84 1025.92 1026.04 1026.08 1026.00 1026.00 1026.04 1026.12 1026.12 1026.12 1026.20 1026.28 1026.28
1023.44 1023.64 1023.72 1023.76 1023.80 1023.84 1023.88 1024.00 1024.12 1024.20 1024.32 1024.44 1024.56 1024.68 1024.72 1024.76 1024.84 1024.92 1025.00 1025.08 1025.12 1025.16 1025.20 1025.24 1025.24 1025.28 1025.32 1025.36 1025.40 1025.40 1025.44 1025.44 1025.40 1025.40 1025.40 1025.40 1025.44 1025.48 1025.52 1025.52 1025.56 1025.52 1025.48 1025.44 1025.44 1025.40 1025.40 1025.32 1025.40 1025.48 1025.56 1025.64 1025.68 1025.68 1025.72 1025.76 1025.84 1025.92 1026.04 1026.08 1026.00 1026.00 1026.00 1026.04 1026.04 1026.08 1026.12 1026.20 1026.20
1023.36 1023.56 1023.68 1023.76 1023.80 1023.84 1023.84 1023.96 1024.08 1024.20 1024.28 1024.40 1024.48 1024.56 1024.56 1024.60 1024.72 1024.80 1024.88 1024.96 1025.00 1025.04 1025.08 1025.12 1025.12 1025.20 1025.28 1025.36 1025.40 1025.40 1025.44 1025.48 1025.48 1025.48 1025.48 1025.44 1025.44 1025.48 1025.52 1025.52 1025.52 1025.48 1025.40 1025.36 1025.36 1025.32 1025.28 1025.28 1025.32 1025.40 1025.52 1025.56 1025.64 1025.68 1025.68 1025.68 1025.76 1025.88 1026.00 1026.04 1026.04 1026.00 1026.00 1026.00 1026.00 1026.00 1026.04 1026.12 1026.12
1023.28 1023.48 1023.64 1023.76 1023.80 1023.84 1023.88 1023.96 1024.00 1024.08 1024.16 1024.28 1024.36 1024.40 1024.44 1024.48 1024.56 1024.64 1024.72 1024.84 1024.88 1024.96 1025.00 1025.04 1025.12 1025.16 1025.28 1025.36 1025.40 1025.40 1025.44 1025.52 1025.52 1025.48 1025.44 1025.44 1025.44 1025.44 1025.44 1025.44 1025.40 1025.40 1025.40 1025.32 1025.36 1025.40 1025.40 1025.40 1025.44 1025.52 1025.56 1025.56 1025.60 1025.64 1025.68 1025.68 1025.72 1025.84 1025.96 1026.00 1026.00 1026.00 1026.00 1025.96 1025.96 1025.96 1026.00 1026.04 1026.04
1023.16 1023.36 1023.56 1023.68 1023.80 1023.84 1023.84 1023.92 1023.96 1024.00 1024.08 1024.16 1024.28 1024.28 1024.36 1024.40 1024.48 1024.56 1024.60 1024.72 1024.80 1024.88 1024.92 1024.96 1025.04 1025.12 1025.16 1025.28 1025.32 1025.36 1025.36 1025.40 1025.40 1025.44 1025.40 1025.40 1025.40 1025.40 1025.36 1025.36 1025.36 1025.36 1025.40 1025.40 1025.44 1025.44 1025.48 1025.48 1025.56 1025.60 1025.60 1025.56 1025.56 1025.60 1025.64 1025.68 1025.72 1025.84 1025.88 1025.88 1025.92 1025.96 1026.00 1025.96 1025.96 1025.96 1025.96 1025.96 1025.96
1023.04 1023.24 1023.40 1023.56 1023.68 1023.76 1023.84 1023.92 1023.96 1024.00 1024.04 1024.12 1024.16 1024.24 1024.28 1024.32 1024.40 1024.48 1024.56 1024.60 1024.72 1024.80 1024.84 1024.84 1024.92 1025.00 1025.08 1025.12 1025.20 1025.28 1025.28 1025.28 1025.36 1025.36 1025.36 1025.36 1025.32 1025.28 1025.28 1025.28 1025.36 1025.40 1025.48 1025.48 1025.44 1025.40 1025.44 1025.52 1025.56 1025.64 1025.64 1025.60 1025.56 1025.60 1025.64 1025.68 1025.72 1025.80 1025.84 1025.84 1025.84 1025.92 1025.96 1026.00 1025.96 1025.92 1025.88 1025.84 1025.84
1022.96 1023.12 1023.36 1023.48 1023.56 1023.68 1023.84 1023.88 1023.88 1023.92 1024.00 1024.04 1024.12 1024.16 1024.20 1024.28 1024.28 1024.36 1024.44 1024.56 1024.64 1024.72 1024.72 1024.76 1024.80 1024.84 1024.96 1025.08 1025.12 1025.16 1025.20 1025.24 1025.28 1025.28 1025.28 1025.28 1025.28 1025.28 1025.28 1025.36 1025.44 1025.48 1025.48 1025.44 1025.40 1025.40 1025.40 1025.52 1025.56 1025.60 1025.64 1025.64 1025.60 1025.56 1025.60 1025.60 1025.68 1025.68 1025.80 1025.84 1025.88 1025.92 1025.96 1025.92 1025.92 1025.88 1025.84 1025.84 1025.80
1022.84 1023.08 1023.28 1023.40 1023.56 1023.68 1023.80 1023.84 1023.84 1023.84 1023.88 1024.00 1024.04 1024.12 1024.12 1024.16 1024.24 1024.28 1024.36 1024.44 1024.56 1024.60 1024.68 1024.72 1024.72 1024.76 1024.84 1024.92 1025.00 1025.08 1025.12 1025.12 1025.16 1025.24 1025.24 1025.24 1025.28 1025.28 1025.36 1025.40 1025.40 1025.40 1025.36 1025.36 1025.28 1025.32 1025.40 1025.44 1025.52 1025.56 1025.56 1025.56 1025.56 1025.52 1025.52 1025.52 1025.56 1025.60 1025.68 1025.80 1025.84 1025.88 1025.88 1025.88 1025.88 1025.84 1025.84 1025.84 1025.80
1022.84 1023.00 1023.16 1023.32 1023.48 1023.64 1023.72 1023.76 1023.72 1023.76 1023.84 1023.92 1023.96 1024.00 1024.04 1024.12 1024.16 1024.20 1024.28 1024.36 1024.40 1024.52 1024.56 1024.64 1024.72 1024.72 1024.72 1024.76 1024.84 1024.92 1025.00 1025.04 1025.08 1025.12 1025.20 1025.24 1025.28 1025.32 1025.32 1025.32 1025.28 1025.28 1025.28 1025.28 1025.24 1025.24 1025.28 1025.32 1025.40 1025.40 1025.48 1025.52 1025.52 1025.44 1025.40 1025.40 1025.44 1025.52 1025.56 1025.68 1025.72 1025.76 1025.80 1025.84 1025.84 1025.84 1025.84 1025.84 1025.84
1022.84 1022.96 1023.08 1023.24 1023.40 1023.56 1023.64 1023.64 1023.64 1023.68 1023.68 1023.80 1023.84 1023.92 1023.96 1024.00 1024.08 1024.12 1024.20 1024.28 1024.36 1024.44 1024.52 1024.56 1024.68 1024.68 1024.68 1024.68 1024.72 1024.80 1024.88 1025.00 1025.04 1025.12 1025.20 1025.28 1025.28 1025.28 1025.24 1025.24 1025.20 1025.20 1025.20 1025.20 1025.20 1025.16 1025.20 1025.24 1025.28 1025.32 1025.36 1025.40 1025.44 1025.44 1025.40 1025.40 1025.40 1025.48 1025.56 1025.60 1025.64 1025.68 1025.68 1025.68 1025.80 1025.84 1025.84 1025.84 1025.84
1022.76 1022.88 1023.00 1023.12 1023.28 1023.40 1023.48 1023.48 1023.52 1023.56 1023.60 1023.68 1023.72 1023.80 1023.84 1023.88 1024.00 1024.08 1024.12 1024.20 1024.32 1024.40 1024.48 1024.56 1024.56 1024.60 1024.64 1024.64 1024.68 1024.72 1024.84 1024.92 1025.00 1025.08 1025.12 1025.16 1025.16 1025.16 1025.16 1025.16 1025.16 1025.16 1025.16 1025.16 1025.20 1025.16 1025.16 1025.20 1025.16 1025.20 1025.24 1025.28 1025.36 1025.40 1025.40 1025.40 1025.40 1025.40 1025.48 1025.48 1025.52 1025.52 1025.56 1025.64 1025.72 1025.80 1025.84 1025.80 1025.76
1022.72 1022.80 1022.92 1023.04 1023.16 1023.28 1023.36 1023.32 1023.36 1023.40 1023.48 1023.56 1023.64 1023.68 1023.68 1023.80 1023.92 1024.00 1024.08 1024.12 1024.24 1024.36 1024.44 1024.48 1024.52 1024.52 1024.56 1024.60 1024.64 1024.72 1024.80 1024.84 1024.96 1025.00 1025.04 1025.04 1025.04 1025.08 1025.12 1025.12 1025.12 1025.08 1025.08 1025.08 1025.12 1025.12 1025.12 1025.12 1025.08 1025.04 1025.08 1025.12 1025.20 1025.28 1025.28 1025.28 1025.32 1025.36 1025.40 1025.40 1025.44 1025.48 1025.56 1025.64 1025.68 1025.72 1025.72 1025.68 1025.64
1022.60 1022.72 1022.84 1022.96 1023.00 1023.12 1023.16 1023.20 1023.20 1023.28 1023.36 1023.44 1023.52 1023.56 1023.64 1023.72 1023.84 1023.92 1024.00 1024.12 1024.16 1024.24 1024.32 1024.40 1024.44 1024.44 1024.48 1024.56 1024.60 1024.64 1024.72 1024.80 1024.84 1024.88 1024.88 1024.92 1024.92 1024.96 1025.00 1025.00 1025.00 1025.00 1025.00 1024.96 1024.96 1024.96 1024.96 1024.96 1024.92 1024.96 1025.00 1025.04 1025.12 1025.12 1025.20 1025.24 1025.28 1025.36 1025.40 1025.48 1025.52 1025.56 1025.60 1025.60 1025.60 1025.60 1025.56 1025.56 1025.52
1022.48 1022.56 1022.68 1022.76 1022.84 1022.92 1023.00 1023.00 1023.04 1023.12 1023.20 1023.28 1023.40 1023.48 1023.56 1023.64 1023.72 1023.84 1024.00 1024.04 1024.08 1024.12 1024.20 1024.28 1024.40 1024.40 1024.44 1024.48 1024.56 1024.60 1024.64 1024.72 1024.72 1024.72 1024.76 1024.76 1024.84 1024.84 1024.84 1024.88 1024.88 1024.84 1024.84 1024.80 1024.80 1024.80 1024.84 1024.84 1024.84 1024.92 1025.00 1025.04 1025.12 1025.20 1025.28 1025.36 1025.40 1025.44 1025.52 1025.56 1025.56 1025.56 1025.56 1025.56 1025.52 1025.48 1025.44 1025.40 1025.40
1022.32 1022.40 1022.48 1022.56 1022.68 1022.72 1022.84 1022.84 1022.92 1023.00 1023.12 1023.24 1023.32 1023.40 1023.48 1023.56 1023.68 1023.76 1023.84 1023.92 1024.00 1024.04 1024.12 1024.24 1024.32 1024.40 1024.40 1024.44 1024.56 1024.56 1024.56 1024.60 1024.60 1024.60 1024.64 1024.68 1024.72 1024.72 1024.72 1024.72 1024.72 1024.72 1024.72 1024.72 1024.76 1024.80 1024.84 1024.84 1024.88 1024.92 1025.00 1025.12 1025.20 1025.28 1025.40 1025.44 1025.52 1025.56 1025.56 1025.56 1025.56 1025.56 1025.52 1025.52 1025.44 1025.40 1025.40 1025.32 1025.28
1022.16 1022.24 1022.32 1022.40 1022.52 1022.56 1022.60 1022.72 1022.80 1022.88 1023.00 1023.12 1023.24 1023.28 1023.40 1023.48 1023.56 1023.64 1023.72 1023.84 1023.92 1024.00 1024.12 1024.20 1024.24 1024.28 1024.32 1024.36 1024.44 1024.48 1024.48 1024.52 1024.52 1024.52 1024.56 1024.56 1024.60 1024.56 1024.56 1024.56 1024.60 1024.72 1024.80 1024.88 1024.92 1024.92 1024.92 1024.96 1024.96 1025.00 1025.12 1025.20 1025.32 1025.40 1025.44 1025.52 1025.56 1025.60 1025.60 1025.60 1025.56 1025.52 1025.48 1025.44 1025.40 1025.40 1025.36 1025.28 1025.24
1022.00 1022.12 1022.16 1022.24 1022.32 1022.40 1022.48 1022.56 1022.72 1022.84 1022.92 1023.04 1023.12 1023.24 1023.28 1023.40 1023.48 1023.56 1023.68 1023.80 1023.88 1024.00 1024.04 1024.12 1024.12 1024.16 1024.20 1024.20 1024.28 1024.32 1024.40 1024.44 1024.48 1024.48 1024.48 1024.48 1024.52 1024.52 1024.48 1024.56 1024.64 1024.80 1024.92 1025.00 1025.00 1025.00 1025.00 1025.08 1025.08 1025.12 1025.20 1025.28 1025.40 1025.48 1025.56 1025.56 1025.60 1025.64 1025.68 1025.68 1025.60 1025.56 1025.52 1025.48 1025.40 1025.40 1025.32 1025.24 1025.12
1021.84 1021.96 1022.00 1022.08 1022.16 1022.28 1022.40 1022.52 1022.64 1022.76 1022.88 1022.96 1023.04 1023.12 1023.20 1023.28 1023.40 1023.52 1023.64 1023.76 1023.84 1023.92 1024.00 1024.04 1024.04 1024.08 1024.08 1024.08 1024.12 1024.16 1024.28 1024.40 1024.48 1024.48 1024.48 1024.44 1024.40 1024.44 1024.48 1024.56 1024.72 1024.88 1025.00 1025.08 1025.08 1025.08 1025.12 1025.16 1025.24 1025.28 1025.32 1025.40 1025.48 1025.56 1025.60 1025.64 1025.68 1025.68 1025.72 1025.72 1025.68 1025.64 1025.56 1025.52 1025.44 1025.36 1025.28 1025.16 1025.08
1021.68 1021.76 1021.84 1021.92 1022.08 1022.24 1022.36 1022.44 1022.56 1022.68 1022.72 1022.80 1022.88 1023.00 1023.08 1023.16 1023.32 1023.44 1023.60 1023.72 1023.84 1023.88 1023.92 1023.96 1024.00 1024.00 1024.00 1024.00 1024.04 1024.08 1024.12 1024.28 1024.36 1024.40 1024.44 1024.44 1024.40 1024.44 1024.56 1024.68 1024.84 1024.96 1025.08 1025.12 1025.12 1025.12 1025.12 1025.24 1025.32 1025.40 1025.48 1025.56 1025.60 1025.64 1025.68 1025.68 1025.72 1025.76 1025.80 1025.80 1025.76 1025.72 1025.68 1025.56 1025.44 1025.32 1025.24 1025.16 1025.04
1021.56 1021.64 1021.72 1021.84 1022.00 1022.12 1022.24 1022.32 1022.40 1022.44 1022.56 1022.60 1022.72 1022.84 1023.00 1023.12 1023.28 1023.40 1023.56 1023.68 1023.76 1023.84 1023.84 1023.84 1023.88 1023.92 1023.92 1023.96 1024.00 1024.00 1024.08 1024.12 1024.20 1024.28 1024.40 1024.40 1024.44 1024.56 1024.64 1024.76 1024.92 1025.08 1025.16 1025.16 1025.16 1025.20 1025.24 1025.28 1025.40 1025.48 1025.56 1025.64 1025.68 1025.76 1025.80 1025.80 1025.84 1025.84 1025.84 1025.84 1025.76 1025.72 1025.68 1025.60 1025.48 1025.36 1025.24 1025.12 1025.00
1021.40 1021.56 1021.64 1021.76 1021.92 1022.00 1022.08 1022.12 1022.16 1022.24 1022.32 1022.44 1022.60 1022.76 1022.88 1023.00 1023.16 1023.32 1023.48 1023.60 1023.68 1023.68 1023.76 1023.80 1023.84 1023.84 1023.84 1023.92 1023.96 1024.00 1024.08 1024.12 1024.12 1024.20 1024.28 1024.40 1024.48 1024.60 1024.76 1024.88 1025.00 1025.12 1025.20 1025.24 1025.24 1025.24 1025.28 1025.36 1025.40 1025.48 1025.56 1025.68 1025.76 1025.84 1025.92 1025.92 1025.88 1025.84 1025.84 1025.84 1025.80 1025.72 1025.68 1025.60 1025.52 1025.40 1025.28 1025.16 1025.04
1021.32 1021.44 1021.56 1021.68 1021.76 1021.84 1021.84 1021.88 1022.00 1022.12 1022.24 1022.40 1022.56 1022.72 1022.80 1022.96 1023.12 1023.28 1023.40 1023.52 1023.56 1023.64 1023.68 1023.68 1023.72 1023.76 1023.84 1023.88 1023.92 1023.96 1024.00 1024.04 1024.08 1024.12 1024.24 1024.36 1024.44 1024.60 1024.80 1024.92 1025.00 1025.12 1025.20 1025.24 1025.28 1025.28 1025.28 1025.36 1025.40 1025.48 1025.56 1025.72 1025.84 1025.88 1025.92 1025.96 1025.92 1025.88 1025.84 1025.84 1025.76 1025.68 1025.64 1025.56 1025.48 1025.40 1025.28 1025.24 1025.12
1021.16 1021.28 1021.44 1021.56 1021.64 1021.68 1021.68 1021.80 1021.92 1022.00 1022.16 1022.32 1022.44 1022.56 1022.76 1022.92 1023.08 1023.24 1023.36 1023.44 1023.52 1023.56 1023.64 1023.68 1023.68 1023.72 1023.84 1023.88 1023.88 1023.88 1023.88 1023.96 1024.00 1024.12 1024.20 1024.28 1024.40 1024.56 1024.76 1024.88 1025.00 1025.12 1025.16 1025.20 1025.28 1025.28 1025.32 1025.40 1025.48 1025.56 1025.60 1025.68 1025.84 1025.92 1025.92 1025.96 1025.92 1025.88 1025.84 1025.80 1025.72 1025.68 1025.60 1025.56 1025.44 1025.40 1025.32 1025.28 1025.16
1021.00 1021.16 1021.32 1021.40 1021.52 1021.56 1021.60 1021.68 1021.80 1021.96 1022.08 1022.24 1022.32 1022.52 1022.72 1022.92 1023.12 1023.24 1023.32 1023.40 1023.44 1023.52 1023.56 1023.56 1023.60 1023.68 1023.76 1023.80 1023.84 1023.84 1023.84 1023.88 1023.96 1024.00 1024.12 1024.24 1024.40 1024.60 1024.76 1024.84 1024.92 1025.04 1025.12 1025.20 1025.24 1025.32 1025.40 1025.44 1025.52 1025.56 1025.60 1025.68 1025.80 1025.84 1025.88 1025.92 1025.92 1025.88 1025.84 1025.76 1025.68 1025.64 1025.56 1025.56 1025.48 1025.40 1025.36 1025.28 1025.20
1020.88 1021.00 1021.12 1021.28 1021.36 1021.44 1021.52 1021.60 1021.68 1021.84 1022.00 1022.12 1022.32 1022.56 1022.76 1022.96 1023.12 1023.16 1023.24 1023.28 1023.32 1023.36 1023.36 1023.40 1023.52 1023.56 1023.64 1023.68 1023.72 1023.80 1023.84 1023.84 1023.92 1024.00 1024.08 1024.20 1024.40 1024.56 1024.72 1024.84 1024.92 1025.00 1025.12 1025.16 1025.24 1025.28 1025.40 1025.44 1025.56 1025.56 1025.60 1025.68 1025.76 1025.84 1025.84 1025.88 1025.84 1025.84 1025.80 1025.72 1025.68 1025.64 1025.56 1025.52 1025.44 1025.40 1025.36 1025.28 1025.20
1020.76 1020.88 1021.00 1021.12 1021.24 1021.36 1021.44 1021.56 1021.64 1021.76 1021.92 1022.12 1022.40 1022.60 1022.80 1023.00 1023.04 1023.12 1023.12 1023.20 1023.20 1023.28 1023.28 1023.40 1023.44 1023.52 1023.56 1023.64 1023.68 1023.68 1023.72 1023.84 1023.88 1023.92 1024.00 1024.12 1024.28 1024.52 1024.68 1024.76 1024.92 1025.04 1025.12 1025.12 1025.20 1025.28 1025.36 1025.40 1025.48 1025.56 1025.56 1025.60 1025.68 1025.76 1025.84 1025.84 1025.84 1025.80 1025.72 1025.68 1025.64 1025.60 1025.56 1025.48 1025.40 1025.40 1025.32 1025.28 1025.20
1020.68 1020.80 1020.92 1021.00 1021.12 1021.28 1021.36 1021.48 1021.56 1021.72 1021.96 1022.24 1022.52 1022.72 1022.84 1022.96 1023.00 1023.08 1023.12 1023.12 1023.12 1023.20 1023.28 1023.32 1023.40 1023.48 1023.56 1023.56 1023.60 1023.64 1023.68 1023.76 1023.80 1023.84 1023.88 1024.00 1024.20 1024.40 1024.60 1024.72 1024.88 1025.00 1025.08 1025.08 1025.12 1025.24 1025.32 1025.40 1025.44 1025.48 1025.52 1025.52 1025.60 1025.72 1025.76 1025.76 1025.76 1025.72 1025.72 1025.68 1025.64 1025.56 1025.48 1025.44 1025.40 1025.36 1025.28 1025.28 1025.16
1020.56 1020.72 1020.84 1021.00 1021.12 1021.20 1021.32 1021.44 1021.56 1021.84 1022.12 1022.40 1022.64 1022.76 1022.84 1022.96 1023.00 1023.04 1023.04 1023.00 1023.08 1023.12 1023.20 1023.24 1023.28 1023.32 1023.36 1023.40 1023.44 1023.56 1023.64 1023.68 1023.72 1023.76 1023.84 1023.92 1024.08 1024.32 1024.56 1024.72 1024.84 1024.92 1025.00 1025.04 1025.12 1025.20 1025.28 1025.36 1025.40 1025.40 1025.40 1025.44 1025.56 1025.64 1025.68 1025.72 1025.72 1025.72 1025.72 1025.68 1025.64 1025.56 1025.44 1025.40 1025.36 1025.32 1025.28 1025.20 1025.16
1020.44 1020.64 1020.80 1020.96 1021.08 1021.20 1021.32 1021.52 1021.72 1022.08 1022.40 1022.60 1022.72 1022.84 1022.88 1022.92 1022.96 1023.00 1023.00 1022.96 1023.00 1023.08 1023.12 1023.16 1023.16 1023.24 1023.28 1023.28 1023.36 1023.44 1023.56 1023.56 1023.64 1023.68 1023.76 1023.84 1024.04 1024.28 1024.48 1024.60 1024.76 1024.84 1024.88 1025.00 1025.08 1025.12 1025.20 1025.28 1025.32 1025.32 1025.36 1025.40 1025.48 1025.56 1025.64 1025.72 1025.76 1025.80 1025.80 1025.72 1025.64 1025.56 1025.48 1025.40 1025.36 1025.28 1025.20 1025.16 1025.12
1020.36 1020.60 1020.84 1021.00 1021.08 1021.16 1021.36 1021.68 1022.00 1022.32 1022.56 1022.72 1022.76 1022.84 1022.84 1022.84 1022.84 1022.84 1022.84 1022.88 1023.00 1023.04 1023.12 1023.16 1023.20 1023.24 1023.28 1023.32 1023.36 1023.40 1023.48 1023.52 1023.60 1023.68 1023.72 1023.84 1023.96 1024.16 1024.40 1024.56 1024.68 1024.76 1024.84 1024.92 1025.00 1025.08 1025.12 1025.16 1025.24 1025.28 1025.28 1025.36 1025.40 1025.52 1025.60 1025.68 1025.76 1025.80 1025.80 1025.76 1025.68 1025.64 1025.56 1025.44 1025.36 1025.28 1025.20 1025.16 1025.12
1020.32 1020.56 1020.80 1020.92 1021.04 1021.20 1021.48 1021.88 1022.20 1022.44 1022.64 1022.72 1022.80 1022.84 1022.84 1022.84 1022.76 1022.76 1022.76 1022.84 1022.96 1023.08 1023.12 1023.20 1023.24 1023.24 1023.28 1023.32 1023.36 1023.40 1023.40 1023.44 1023.56 1023.64 1023.68 1023.76 1023.84 1024.00 1024.28 1024.48 1024.60 1024.72 1024.76 1024.84 1024.92 1025.00 1025.00 1025.08 1025.12 1025.16 1025.20 1025.28 1025.36 1025.48 1025.56 1025.68 1025.72 1025.76 1025.80 1025.80 1025.76 1025.68 1025.56 1025.48 1025.36 1025.28 1025.20 1025.12 1025.04
1020.28 1020.44 1020.68 1020.84 1021.08 1021.36 1021.68 1022.08 1022.32 1022.52 1022.64 1022.72 1022.84 1022.84 1022.84 1022.76 1022.72 1022.72 1022.72 1022.80 1022.92 1023.04 1023.12 1023.20 1023.20 1023.24 1023.24 1023.28 1023.32 1023.36 1023.36 1023.32 1023.40 1023.52 1023.64 1023.68 1023.76 1023.92 1024.12 1024.40 1024.56 1024.68 1024.72 1024.76 1024.80 1024.84 1024.88 1024.96 1025.00 1025.04 1025.08 1025.16 1025.32 1025.44 1025.56 1025.60 1025.68 1025.72 1025.76 1025.76 1025.72 1025.68 1025.56 1025.48 1025.40 1025.28 1025.24 1025.12 1025.00
1020.16 1020.32 1020.56 1020.84 1021.24 1021.56 1021.88 1022.16 1022.40 1022.52 1022.64 1022.76 1022.84 1022.84 1022.76 1022.68 1022.64 1022.68 1022.72 1022.76 1022.84 1023.00 1023.12 1023.12 1023.16 1023.16 1023.16 1023.20 1023.28 1023.32 1023.32 1023.28 1023.32 1023.40 1023.52 1023.64 1023.68 1023.80 1024.00 1024.28 1024.44 1024.56 1024.64 1024.60 1024.68 1024.72 1024.80 1024.84 1024.88 1024.88 1024.96 1025.08 1025.24 1025.32 1025.40 1025.52 1025.60 1025.68 1025.72 1025.76 1025.72 1025.68 1025.56 1025.44 1025.36 1025.28 1025.24 1025.12 1024.88
1020.12 1020.36 1020.68 1021.08 1021.40 1021.68 1021.92 1022.12 1022.32 1022.52 1022.64 1022.76 1022.84 1022.76 1022.68 1022.64 1022.60 1022.64 1022.68 1022.72 1022.80 1022.88 1023.00 1023.08 1023.12 1023.12 1023.12 1023.16 1023.24 1023.28 1023.32 1023.32 1023.32 1023.36 1023.40 1023.52 1023.56 1023.64 1023.84 1024.08 1024.28 1024.44 1024.48 1024.48 1024.52 1024.60 1024.68 1024.72 1024.72 1024.72 1024.84 1025.04 1025.12 1025.20 1025.28 1025.40 1025.52 1025.68 1025.72 1025.76 1025.72 1025.68 1025.56 1025.44 1025.40 1025.28 1025.24 1025.12 1024.96
1020.28 1020.60 1020.96 1021.24 1021.48 1021.68 1021.92 1022.12 1022.40 1022.56 1022.68 1022.68 1022.64 1022.60 1022.56 1022.56 1022.56 1022.60 1022.64 1022.72 1022.80 1022.84 1022.92 1023.00 1023.04 1023.04 1023.12 1023.16 1023.20 1023.28 1023.32 1023.36 1023.36 1023.40 1023.40 1023.40 1023.48 1023.56 1023.68 1023.84 1024.04 1024.16 1024.28 1024.32 1024.40 1024.48 1024.52 1024.56 1024.56 1024.60 1024.72 1024.96 1025.00 1025.04 1025.12 1025.28 1025.44 1025.60 1025.68 1025.68 1025.68 1025.64 1025.56 1025.48 1025.40 1025.28 1025.24 1025.12 1025.00
Thickness
5548 5546 5544 5541 5538 5535 5532 5530 5528 5525 5522 5520 5517 5514 5512 5509 5506 5503 5502 5500 5498 5496 5494 5492 5491 5489 5487 5485 5483 5481 5479 5477 5475 5473 5470 5468 5466 5463 5460 5458 5456 5453 5451 5448 5446 5444 5441 5438 5436 5432 5429 5426 5423 5419 5416 5412 5409 5406 5401 5398 5395 5391 5388 5383 5379 5375 5372 5368 5364
5546 5543 5541 5538 5535 5532 5530 5527 5525 5522 5520 5518 5515 5512 5510 5507 5504 5501 5499 5497 5495 5494 5492 5490 5488 5486 5484 5482 5480 5478 5476 5474 5472 5469 5467 5465 5462 5460 5457 5455 5452 5449 5447 5444 5442 5439 5436 5433 5430 5427 5424 5421 5417 5414 5410 5408 5405 5401 5397 5393 5389 5386 5382 5377 5373 5369 5366 5362 5358
5543 5540 5538 5535 5532 5529 5526 5523 5521 5518 5517 5515 5513 5511 5508 5506 5503 5499 5497 5494 5493 5490 5489 5486 5484 5482 5481 5478 5477 5475 5473 5471 5469 5467 5464 5461 5459 5456 5453 5451 5448 5445 5443 5440 5438 5435 5432 5429 5426 5423 5419 5416 5412 5408 5405 5403 5399 5396 5392 5388 5384 5380 5376 5372 5368 5364 5360 5356 5352
5539 5537 5534 5531 5528 5525 5523 5520 5518 5515 5514 5513 5511 5509 5507 5504 5501 5498 5494 5492 5490 5487 5485 5483 5481 5479 5477 5475 5474 5472 5470 5468 5466 5464 5461 5458 5455 5453 5450 5447 5444 5442 5439 5436 5433 5431 5428 5424 5422 5418 5415 5411 5407 5404 5401 5398 5394 5390 5387 5383 5379 5375 5371 5366 5362 5359 5355 5351 5347
5536 5533 5530 5527 5525 5522 5521 5518 5516 5514 5511 5510 5508 5506 5504 5501 5499 5495 5492 5489 5487 5484 5482 5480 5477 5476 5474 5472 5470 5468 5467 5465 5463 5460 5458 5455 5452 5449 5447 5444 5441 5439 5436 5433 5430 5427 5424 5421 5417 5414 5411 5408 5404 5400 5397 5393 5390 5386 5381 5378 5374 5370 5366 5361 5357 5354 5350 5346 5342
5531 5529 5527 5524 5522 5520 5518 5516 5514 5511 5509 5507 5504 5501 5500 5497 5495 5492 5489 5486 5483 5481 5479 5477 5475 5473 5471 5469 5467 5465 5463 5461 5458 5456 5454 5452 5449 5446 5443 5440 5437 5435 5432 5429 5426 5423 5420 5417 5413 5410 5406 5403 5400 5396 5393 5389 5385 5380 5376 5371 5367 5364 5361 5356 5352 5348 5345 5341 5337
5529 5526 5524 5522 5520 5518 5516 5514 5511 5509 5506 5504 5500 5497 5495 5494 5491 5489 5486 5484 5481 5479 5476 5474 5472 5470 5468 5466 5463 5462 5459 5457 5456 5454 5451 5448 5446 5442 5440 5436 5433 5430 5427 5425 5421 5418 5415 5413 5410 5406 5402 5399 5395 5391 5388 5384 5380 5375 5371 5366 5362 5359 5355 5351 5347 5343 5339 5335 5331
5527 5524 5521 5519 5518 5516 5513 5511 5508 5506 5503 5500 5497 5495 5492 5490 5489 5486 5484 5481 5479 5476 5474 5472 5470 5467 5465 5463 5460 5458 5456 5454 5452 5449 5447 5445 5441 5438 5435 5432 5429 5426 5423 5420 5417 5414 5411 5408 5405 5401 5398 5394 5390 5386 5383 5380 5375 5370 5365 5361 5358 5353 5350 5346 5343 5339 5334 5330 5327
5526 5522 5519 5517 5515 5513 5510 5508 5506 5503 5500 5498 5495 5493 5491 5489 5486 5484 5481 5479 5477 5475 5472 5470 5467 5465 5463 5460 5457 5455 5453 5450 5448 5445 5442 5440 5437 5433 5430 5427 5424 5421 5419 5415 5413 5410 5406 5403 5400 5397 5393 5389 5385 5381 5377 5374 5370 5365 5360 5357 5353 5348 5345 5341 5338 5334 5330 5326 5322
5523 5520 5517 5514 5512 5510 5508 5505 5504 5501 5498 5496 5494 5492 5489 5488 5485 5483 5480 5477 5475 5473 5470 5468 5465 5462 5459 5457 5454 5451 5449 5446 5443 5441 5438 5435 5432 5429 5426 5423 5420 5417 5414 5410 5407 5404 5400 5397 5394 5390 5386 5383 5379 5376 5372 5368 5364 5360 5356 5351 5348 5344 5340 5336 5333 5330 5326 5321 5318
5522 5519 5515 5512 5509 5507 5505 5503 5501 5499 5497 5494 5492 5490 5488 5485 5483 5481 5478 5476 5473 5470 5468 5465 5463 5460 5457 5454 5451 5448 5445 5442 5440 5436 5434 5431 5428 5425 5422 5419 5416 5412 5409 5405 5401 5398 5395 5391 5387 5383 5380 5377 5374 5370 5367 5362 5358 5354 5350 5346 5343 5339 5336 5332 5328 5324 5321 5317 5313
5520 5516 5513 5510 5507 5505 5502 5500 5498 5496 5494 5491 5490 5487 5485 5483 5481 5478 5476 5474 5470 5468 5465 5462 5460 5457 5454 5451 5448 5445 5442 5439 5436 5433 5430 5427 5424 5421 5418 5415 5412 5408 5404 5400 5397 5393 5389 5386 5382 5378 5374 5371 5368 5365 5361 5357 5353 5348 5344 5341 5337 5334 5330 5327 5323 5320 5316 5312 5309
5517 5513 5510 5508 5505 5502 5500 5497 5495 5493 5491 5488 5486 5484 5482 5480 5478 5476 5473 5471 5467 5465 5462 5460 5458 5454 5451 5448 5444 5442 5439 5436 5432 5429 5426 5423 5420 5417 5414 5410 5407 5403 5400 5396 5392 5389 5385 5380 5377 5373 5369 5366 5363 5359 5355 5352 5347 5343 5340 5336 5332 5328 5325 5322 5318 5315 5311 5308 5303
5514 5511 5507 5505 5502 5499 5497 5495 5493 5491 5489 5486 5483 5482 5480 5477 5475 5473 5471 5468 5465 5462 5460 5457 5454 5451 5448 5445 5442 5439 5436 5432 5429 5426 5423 5419 5416 5413 5409 5405 5402 5399 5396 5393 5388 5384 5381 5376 5372 5368 5365 5361 5358 5354 5351 5347 5343 5339 5335 5331 5328 5324 5320 5317 5314 5310 5307 5303 5299
5511 5508 5505 5502 5500 5496 5494 5492 5491 5489 5486 5484 5481 5479 5478 5475 5472 5471 5468 5466 5463 5460 5457 5455 5451 5449 5445 5442 5439 5435 5432 5429 5426 5422 5418 5415 5411 5408 5405 5402 5399 5396 5392 5388 5384 5380 5376 5372 5368 5364 5360 5357 5353 5350 5347 5343 5340 5336 5332 5328 5324 5320 5316 5313 5309 5305 5301 5297 5293
5509 5505 5503 5500 5497 5494 5492 5490 5489 5486 5484 5482 5479 5478 5475 5473 5470 5468 5465 5463 5460 5457 5455 5451 5448 5445 5442 5439 5436 5433 5429 5425 5422 5419 5415 5412 5408 5405 5402 5399 5396 5392 5388 5384 5380 5376 5372 5368 5364 5361 5357 5353 5349 5346 5343 5340 5336 5333 5328 5324 5321 5316 5312 5308 5304 5299 5295 5292 5288
5506 5503 5500 5497 5495 5492 5490 5488 5487 5485 5482 5480 5478 5475 5473 5470 5468 5466 5463 5460 5457 5454 5451 5448 5445 5442 5439 5436 5433 5430 5426 5422 5419 5415 5412 5409 5405 5402 5399 5395 5392 5388 5385 5381 5376 5372 5368 5364 5360 5357 5353 5349 5346 5342 5339 5336 5332 5329 5324 5321 5317 5313 5308 5303 5299 5294 5291 5286 5283
5503 5501 5498 5495 5492 5490 5488 5486 5485 5482 5480 5478 5476 5473 5471 5468 5465 5463 5460 5457 5455 5451 5447 5444 5442 5439 5435 5432 5429 5426 5423 5419 5415 5412 5409 5406 5402 5398 5395 5392 5388 5385 5381 5376 5372 5368 5364 5361 5357 5354 5350 5346 5342 5338 5335 5332 5328 5324 5320 5316 5312 5308 5303 5299 5294 5290 5286 5282 5278
5501 5498 5496 5493 5490 5488 5486 5484 5483 5481 5478 5476 5473 5470 5468 5466 5463 5460 5457 5454 5451 5448 5445 5441 5438 5435 5432 5429 5427 5423 5420 5417 5413 5410 5406 5403 5399 5396 5391 5388 5385 5381 5377 5373 5369 5364 5361 5357 5354 5350 5346 5342 5338 5334 5331 5327 5322 5319 5315 5310 5306 5302 5298 5294 5290 5286 5282 5278 5275
5499 5496 5494 5491 5489 5487 5484 5483 5480 5478 5476 5473 5471 5467 5465 5463 5460 5456 5453 5450 5447 5445 5442 5438 5434 5432 5429 5426 5423 5420 5417 5414 5410 5407 5403 5399 5396 5392 5389 5385 5381 5377 5373 5369 5365 5360 5357 5353 5349 5345 5341 5337 5333 5329 5324 5321 5316 5313 5308 5304 5301 5297 5293 5289 5286 5282 5278 5274 5270
5497 5495 5492 5490 5487 5485 5482 5481 5479 5476 5473 5471 5468 5465 5462 5459 5456 5454 5450 5447 5444 5441 5438 5435 5431 5429 5425 5422 5419 5416 5413 5410 5407 5404 5399 5396 5392 5388 5385 5382 5378 5374 5370 5365 5360 5356 5352 5348 5345 5341 5337 5332 5328 5323 5319 5315 5311 5306 5303 5299 5295 5292 5289 5285 5281 5277 5274 5270 5267
5495 5493 5491 5488 5486 5483 5481 5478 5476 5473 5471 5468 5465 5463 5460 5457 5453 5450 5448 5444 5441 5438 5434 5431 5428 5425 5421 5418 5416 5412 5409 5406 5403 5400 5396 5392 5388 5384 5381 5378 5375 5370 5365 5359 5355 5350 5346 5342 5339 5335 5332 5327 5322 5318 5314 5310 5305 5302 5298 5294 5291 5287 5284 5280 5276 5273 5269 5266 5263
5494 5491 5489 5487 5484 5482 5479 5476 5473 5471 5468 5466 5463 5460 5457 5454 5451 5447 5444 5441 5437 5433 5431 5427 5424 5421 5419 5415 5412 5408 5405 5401 5397 5394 5391 5387 5384 5380 5377 5373 5370 5365 5360 5354 5349 5346 5342 5338 5334 5329 5325 5321 5317 5313 5309 5304 5301 5296 5293 5289 5286 5282 5279 5276 5272 5269 5266 5262 5259
5492 5490 5487 5485 5482 5480 5477 5474 5471 5468 5466 5463 5461 5457 5454 5451 5448 5444 5441 5437 5433 5430 5426 5423 5420 5417 5415 5411 5408 5404 5401 5397 5392 5389 5385 5382 5379 5376 5373 5369 5364 5359 5354 5350 5345 5341 5337 5333 5328 5324 5320 5315 5311 5307 5303 5300 5295 5292 5288 5284 5281 5278 5274 5271 5268 5265 5262 5259 5257
5490 5488 5486 5483 5480 5477 5474 5472 5469 5466 5464 5461 5458 5455 5452 5449 5445 5441 5437 5433 5429 5426 5423 5419 5416 5413 5410 5408 5404 5401 5397 5394 5389 5385 5381 5378 5374 5371 5367 5363 5359 5354 5349 5344 5339 5335 5331 5327 5323 5319 5315 5311 5306 5302 5298 5294 5290 5287 5283 5279 5276 5273 5270 5267 5264 5261 5259 5256 5253
5489 5487 5483 5481 5478 5475 5472 5470 5467 5464 5462 5459 5456 5453 5449 5446 5442 5438 5433 5429 5426 5423 5419 5416 5413 5410 5407 5404 5401 5397 5393 5389 5386 5381 5377 5373 5369 5365 5360 5356 5352 5347 5343 5339 5334 5330 5326 5322 5318 5314 5310 5306 5301 5297 5293 5289 5285 5282 5278 5275 5271 5269 5265 5263 5260 5258 5255 5253 5251
5487 5484 5482 5479 5476 5473 5471 5468 5466 5463 5460 5457 5453 5450 5446 5442 5438 5434 5430 5426 5422 5419 5416 5413 5410 5407 5404 5400 5397 5393 5389 5385 5381 5377 5372 5368 5363 5359 5354 5350 5346 5341 5337 5333 5329 5325 5321 5318 5314 5310 5305 5300 5296 5292 5287 5284 5280 5277 5273 5270 5267 5264 5261 5259 5256 5254 5252 5249 5247
5485 5482 5479 5477 5474 5472 5469 5466 5464 5461 5458 5454 5451 5447 5443 5439 5435 5430 5426 5423 5419 5416 5413 5410 5407 5403 5400 5396 5393 5389 5385 5381 5377 5372 5367 5363 5358 5354 5349 5345 5341 5336 5332 5328 5323 5320 5317 5313 5309 5305 5301 5296 5292 5287 5284 5279 5276 5272 5269 5266 5263 5260 5258 5255 5253 5250 5248 5245 5244
5483 5480 5478 5475 5472 5470 5468 5465 5461 5458 5455 5451 5448 5444 5439 5435 5430 5427 5423 5420 5417 5413 5410 5407 5403 5400 5396 5392 5388 5385 5381 5376 5372 5368 5363 5358 5353 5348 5344 5340 5336 5331 5327 5323 5319 5315 5312 5308 5304 5300 5296 5292 5287 5283 5279 5275 5272 5268 5265 5262 5259 5257 5254 5251 5249 5247 5244 5242 5240
5482 5479 5476 5473 5470 5468 5465 5462 5459 5455 5452 5448 5444 5440 5435 5431 5426 5423 5420 5416 5413 5410 5407 5404 5401 5396 5391 5388 5384 5380 5375 5372 5367 5363 5358 5354 5349 5343 5339 5335 5331 5326 5321 5318 5314 5310 5307 5304 5299 5295 5292 5287 5283 5279 5275 5271 5268 5264 5261 5258 5256 5253 5250 5248 5245 5244 5241 5239 5237
5480 5477 5474 5471 5468 5466 5463 5460 5457 5453 5448 5445 5440 5436 5431 5426 5422 5419 5416 5413 5410 5407 5404 5401 5397 5393 5388 5384 5380 5376 5372 5367 5363 5359 5354 5350 5344 5339 5335 5331 5327 5322 5318 5313 5310 5306 5302 5299 5295 5291 5287 5283 5279 5275 5271 5267 5264 5261 5258 5255 5252 5250 5247 5245 5242 5240 5238 5236 5234
5478 5475 5472 5469 5466 5463 5460 5457 5453 5449 5446 5441 5436 5431 5427 5423 5419 5417 5414 5411 5408 5404 5401 5396 5392 5388 5384 5379 5376 5371 5367 5363 5359 5354 5350 5345 5340 5335 5331 5327 5323 5318 5314 5309 5305 5302 5297 5294 5290 5286 5283 5279 5275 5271 5268 5264 5261 5257 5254 5251 5249 5246 5244 5242 5239 5237 5235 5234 5232
5476 5473 5470 5467 5464 5460 5457 5454 5450 5446 5441 5436 5431 5426 5423 5419 5416 5413 5410 5407 5404 5400 5397 5392 5388 5384 5379 5375 5371 5367 5363 5358 5355 5351 5346 5342 5336 5332 5327 5323 5319 5315 5310 5305 5301 5297 5293 5289 5286 5283 5279 5275 5272 5268 5264 5261 5258 5254 5251 5248 5245 5243 5241 5239 5236 5235 5233 5231 5230
5474 5471 5468 5464 5461 5457 5454 5450 5446 5441 5435 5430 5426 5423 5419 5416 5413 5410 5407 5403 5399 5395 5392 5388 5384 5380 5376 5372 5368 5364 5359 5354 5351 5347 5343 5338 5333 5328 5324 5320 5316 5312 5307 5302 5297 5293 5289 5286 5282 5279 5275 5272 5268 5265 5261 5257 5254 5250 5247 5245 5242 5240 5238 5236 5234 5232 5231 5229 5228
5472 5468 5465 5461 5458 5454 5450 5445 5440 5435 5430 5425 5422 5419 5416 5412 5409 5406 5403 5399 5394 5391 5387 5383 5379 5375 5372 5368 5364 5360 5356 5351 5347 5342 5339 5334 5330 5325 5321 5317 5313 5309 5304 5299 5294 5289 5285 5281 5278 5275 5272 5269 5265 5262 5257 5254 5250 5247 5244 5241 5239 5237 5235 5233 5231 5230 5229 5227 5226
5469 5465 5461 5457 5454 5451 5446 5440 5434 5429 5424 5421 5418 5415 5412 5408 5405 5401 5398 5394 5390 5386 5382 5378 5374 5370 5366 5362 5358 5354 5350 5347 5343 5338 5334 5331 5327 5323 5318 5314 5310 5306 5301 5296 5291 5285 5281 5278 5275 5272 5269 5266 5263 5258 5254 5250 5246 5243 5240 5237 5235 5233 5232 5230 5229 5228 5226 5225 5224
5466 5462 5458 5454 5450 5446 5441 5435 5429 5424 5420 5417 5413 5410 5407 5404 5400 5397 5394 5390 5386 5381 5377 5373 5370 5365 5362 5357 5353 5349 5345 5342 5338 5334 5330 5326 5323 5318 5314 5309 5306 5302 5298 5293 5287 5282 5278 5274 5271 5268 5266 5263 5259 5255 5251 5247 5243 5240 5237 5234 5232 5230 5229 5228 5227 5226 5224 5223 5222
5462 5459 5455 5451 5446 5441 5435 5429 5424 5419 5415 5412 5408 5405 5402 5400 5397 5393 5390 5386 5382 5377 5372 5368 5365 5360 5356 5352 5348 5344 5340 5337 5334 5330 5327 5322 5319 5315 5310 5306 5302 5298 5295 5290 5285 5280 5275 5271 5268 5266 5263 5260 5256 5252 5248 5244 5240 5237 5235 5232 5230 5228 5227 5226 5225 5223 5222 5221 5219
5459 5455 5451 5447 5441 5434 5429 5424 5419 5415 5411 5407 5403 5400 5397 5395 5392 5389 5385 5382 5377 5374 5369 5364 5360 5356 5352 5348 5343 5339 5335 5332 5330 5327 5324 5319 5316 5311 5307 5302 5297 5294 5291 5287 5283 5278 5272 5268 5265 5262 5260 5257 5253 5249 5245 5242 5238 5235 5232 5230 5227 5226 5225 5223 5223 5221 5220 5219 5219
5455 5451 5446 5440 5435 5430 5424 5420 5415 5411 5407 5403 5400 5396 5394 5391 5389 5385 5382 5377 5373 5369 5364 5360 5356 5351 5347 5343 5339 5335 5332 5328 5325 5323 5320 5316 5312 5308 5303 5298 5294 5291 5288 5285 5281 5275 5270 5266 5262 5259 5256 5253 5250 5247 5243 5240 5236 5233 5230 5227 5225 5224 5223 5221 5220 5219 5218 5217 5216
5450 5445 5439 5435 5430 5425 5420 5415 5410 5406 5403 5400 5397 5394 5391 5388 5384 5380 5377 5373 5368 5364 5359 5356 5351 5347 5343 5339 5335 5332 5329 5325 5321 5318 5315 5312 5308 5304 5299 5295 5291 5287 5284 5281 5278 5272 5268 5264 5260 5257 5253 5250 5247 5244 5241 5238 5234 5231 5228 5226 5224 5222 5221 5219 5218 5217 5216 5215 5214